Miscellaneous Local Product
Issued by NWS Hastings, NE

Home | Current Version | Previous Version | Graphics & Text | Print | Product List | Glossary On
Versions: 1 2 3 4 5 6 7 8 9 10 11 12 13 14 15 16 17 18 19 20 21 22 23 24 25 26 27 28 29 30 31 32 33 34 35 36 37 38 39 40 41 42 43 44 45 46 47 48 49 50
000
AXUS43 KGID 171602
MISGRI

GID CWA HOURLY WEATHER ROUNDUP
NATIONAL WEATHER SERVICE HASTINGS NE
1000 AM CST WED DEC 17 2014

NOTE: "FAIR" INDICATES FEW OR NO CLOUDS BELOW 12,000 FEET WITH NO
SIGNIFICANT WEATHER AND/OR OBSTRUCTIONS TO VISIBILITY.

...SOUTH CENTRAL NEBRASKA...

CITY           SKY/WX    TMP DP  RH WIND       PRES   REMARKS
GRAND ISLAND   CLOUDY    20  17  88 E7        30.29S WCI  11
HASTINGS       CLOUDY    21  18  88 E7        30.26S WCI  12
KEARNEY        CLOUDY    21  18  86 E6        30.25S WCI  14
ORD            CLOUDY    18  16  92 SE7       30.25S WCI   9
YORK           CLOUDY    23  19  86 SE7       30.30F WCI  15
AURORA         CLOUDY    23  20  89 SE7       30.28F WCI  14
LEXINGTON      CLOUDY    22  20  95 SE7       30.21S FOG     WCI  13
HOLDREGE       CLOUDY    21  19  94 E6        30.23R FOG     WCI  13
HEBRON         CLOUDY    23  18  81 E7        30.30F WCI  14

...NEBRASKA PANHANDLE...

CITY           SKY/WX    TMP DP  RH WIND       PRES   REMARKS
CHADRON        PTSUNNY    9   8  96 CALM      30.04S FOG
ALLIANCE       CLOUDY    21  18  88 S16       30.02R WCI   7
SCOTTSBLUFF    CLOUDY    17  16  95 SE3       30.02S
SIDNEY         FOG       19  17  92 S12       30.04R VSB 1/4 WCI   7

...WESTERN AND NORTH CENTRAL NEBRASKA...

CITY           SKY/WX    TMP DP  RH WIND       PRES   REMARKS
VALENTINE      CLOUDY    19  17  92 SE14      30.17F FOG     WCI   6
AINSWORTH      FOG       18  16  93 S6        30.20R VSB 1   WCI   9
ONEILL         CLOUDY    18  17  96 CALM      30.26S
BROKEN BOW     CLOUDY    19  18  95 S6        30.21R FOG     WCI  11
IMPERIAL       CLOUDY    22  18  85 S12       30.12S WCI  10
NORTH PLATTE   CLOUDY    20  18  92 SE7       30.17S WCI  11
MCCOOK         CLOUDY    21  20  96 SE9       30.19R FOG     WCI  11

...EASTERN NEBRASKA...

CITY           SKY/WX    TMP DP  RH WIND       PRES   REMARKS
NORFOLK        MOSUNNY   21  15  78 CALM      30.30S
SO SIOUX CITY  MOSUNNY   17  11  77 N6        30.36F WCI   9
TEKAMAH        PTSUNNY   19  12  74 N5        30.37S WCI  12
COLUMBUS       CLOUDY    21  10  63 CALM      30.33S
ALBION         CLOUDY    20  16  84 SE6       30.30R WCI  13
OMAHA EPPLEY   PTSUNNY   20  13  74 N6        30.37S WCI  12
OFFUTT AFB     PTSUNNY   20  13  73 N6        30.35S WCI  12
MILLARD        CLOUDY    21  13  70 CALM      30.35R
LINCOLN        PTSUNNY   23  15  71 NE5       30.35S WCI  17
NEBRASKA CITY  CLOUDY    20  13  73 NE3       30.34R
BEATRICE       MOSUNNY   22  17  78 E6        30.32F WCI  15
FALLS CITY     CLOUDY    21  15  78 NE6       30.35F WCI  13

...NORTHERN KANSAS...

CITY           SKY/WX    TMP DP  RH WIND       PRES   REMARKS
GOODLAND       FOG       23  22  96 E10       30.07F VSB<1/4 WCI  12
HILL CITY      CLOUDY    23  20  88 E10       30.22R WCI  12
NORTON         CLOUDY    21  19  93 E8        30.20S FOG     WCI  12
PHILLIPSBURG   CLOUDY    27  25  93 E10       30.25F WCI  17
SMITH CENTER   CLOUDY    23  19  86 E9        30.27S WCI  13
BELOIT         CLOUDY    27  21  80 E8        30.30R WCI  18
HAYS           CLOUDY    27  16  63 E13       30.20F WCI  16
RUSSELL        CLOUDY    25  22  88 E14       30.22S WCI  13
CONCORDIA      CLOUDY    24  18  77 E9        30.30R WCI  14
SALINA         CLOUDY    27  22  81 E8        30.30S WCI  19
TOPEKA         CLOUDY    26  19  74 VRB3      30.37R



USA.gov is the U.S. government's official web portal to all federal, state and local government web resources and services.